Location: Newark
(0.5300°S, 127.4800°E)
Time: 01:41:41
(UTC+00:00)

Vanguard 3 - Pass Details

Date: 23 September 2019
Orbit: 508 x 3262 km, 33.3° (Epoch: 18 October)

Event Time Altitude Azimuth Distance (km) Brightness Sun altitude
Rises 01:20:22 0° 312° (NW) 6,514 11.5 59.4°
Reaches altitude 10° 01:27:28 10° 331° (NNW) 5,895 11.5 61.2°
Maximum altitude 01:38:11 17° 5° (N) 5,585 11.7 63.9°
Drops below altitude 10° 01:49:11 10° 40° (NE) 6,075 12.0 66.6°
Sets 01:56:41 0° 59° (ENE) 6,790 12.1 68.5°
